Location: Newark
(25.4297°S, 49.2719°W)
Time: 01:56:00
(UTC+00:00)

Tiangong - Pass Details

Date: 27 June 2021
Orbit: 373 x 386 km, 41.5° (Epoch: 02 August)

Event Time Altitude Azimuth Distance (km) Brightness Sun altitude
Rises 21:27:42 0° 239° (WSW) 2,262 5.6 -11.3°
Reaches altitude 10° 21:29:49 10° 244° (WSW) 1,401 4.6 -11.8°
Maximum altitude 21:32:54 53° 321° (NW) 473 1.8 -12.4°
Drops below altitude 10° 21:35:57 10° 40° (NE) 1,380 3.7 -13.1°
Enters shadow 21:37:13 - 43° (NE) 1,891 4.3 -13.3°
